Location: Praha
(50.0830°N, 14.4670°E)
Time: 10:26:38
(UTC+02:00)

ISS - Pass Details

Date: 20 May 2019
Orbit: 407 x 410 km, 51.6° (Epoch: 21 May)

Event Time Altitude Azimuth Distance (km) Brightness Sun altitude
Rises 01:14:14 0° 281° (W) 2,336 0.1 -20.0°
Reaches altitude 10° 01:16:19 10° 283° (WNW) 1,475 -0.9 -19.9°
Maximum altitude 01:19:37 70° 8° (N) 438 -3.6 -19.9°
Drops below altitude 10° 01:22:55 10° 93° (E) 1,474 -1.0 -19.8°
Sets 01:25:01 0° 96° (E) 2,335 0.0 -19.8°
